Location: Pensacola
(30.4142°N, 87.2155°W)
Time: 10:44:39
(UTC-06:00)

Tiangong 1 - Visible Passes

Search period start: 23 November 2017 00:00
Search period end: 03 December 2017 00:00
Orbit: 284 x 308 km, 42.8° (Epoch: 23 November)

Date Brightness Start Highest point End Pass type
(mag) Time Alt. Az. Time Alt. Az. Time Alt. Az.
23 Nov 1.2 18:06:48 10° WSW 18:09:18 45° NNW 18:09:26 44° NNW visible
24 Nov 2.6 18:13:52 10° WNW 18:15:50 21° NNW 18:15:50 21° NNW visible
25 Nov 3.5 18:21:18 10° NW 18:22:02 12° NNW 18:22:02 12° NNW visible
